Total_Precipitation_Accumulation
0.09 0.09 0.15 0.17 0.18 0.19 0.19 0.19 0.19 0.19 0.20 0.17 0.16 0.15 0.14 0.13 0.17 0.21 0.21 0.15 0.11 0.11 0.11 0.19 0.24 0.19 0.20 0.26 0.30 0.34 0.40 0.42 0.33 0.26 0.26 0.28 0.25 0.27 0.36 0.45 0.57 0.60 0.39
0.07 0.07 0.16 0.20 0.20 0.21 0.20 0.18 0.19 0.19 0.15 0.15 0.15 0.14 0.12 0.14 0.19 0.19 0.15 0.10 0.08 0.08 0.11 0.19 0.26 0.23 0.23 0.31 0.41 0.49 0.54 0.48 0.39 0.29 0.34 0.39 0.32 0.32 0.37 0.43 0.64 0.62 0.35
0.03 0.06 0.11 0.20 0.22 0.21 0.20 0.18 0.23 0.23 0.15 0.15 0.17 0.15 0.12 0.11 0.11 0.11 0.11 0.08 0.06 0.06 0.08 0.17 0.24 0.24 0.26 0.36 0.47 0.50 0.51 0.49 0.40 0.34 0.64 1.16 0.80 0.45 0.41 0.49 0.53 0.39 0.33
0.04 0.06 0.13 0.24 0.29 0.28 0.24 0.24 0.37 0.34 0.25 0.21 0.20 0.18 0.12 0.10 0.13 0.19 0.18 0.08 0.05 0.06 0.07 0.14 0.22 0.22 0.26 0.36 0.40 0.39 0.40 0.40 0.42 0.54 1.05 1.41 1.21 0.67 0.62 0.62 0.53 0.41 0.35
0.07 0.13 0.30 0.38 0.34 0.32 0.33 0.41 0.54 0.48 0.41 0.32 0.22 0.17 0.16 0.14 0.14 0.20 0.15 0.09 0.05 0.06 0.08 0.14 0.20 0.20 0.21 0.25 0.29 0.30 0.37 0.51 0.63 0.74 1.05 1.17 1.18 0.82 0.71 0.66 0.59 0.46 0.42
0.16 0.21 0.33 0.42 0.38 0.37 0.44 0.54 0.57 0.58 0.61 0.44 0.27 0.21 0.21 0.19 0.18 0.19 0.17 0.11 0.07 0.07 0.08 0.11 0.15 0.20 0.21 0.23 0.25 0.30 0.44 0.62 0.74 0.86 1.02 1.05 1.01 0.73 0.64 0.62 0.61 0.57 0.52
0.23 0.25 0.31 0.44 0.45 0.47 0.55 0.61 0.58 0.62 0.66 0.51 0.30 0.28 0.27 0.19 0.18 0.19 0.20 0.12 0.08 0.06 0.06 0.10 0.13 0.16 0.19 0.23 0.24 0.30 0.40 0.45 0.59 0.78 1.01 1.09 0.81 0.53 0.53 0.57 0.60 0.62 0.60
0.41 0.35 0.36 0.45 0.48 0.51 0.58 0.67 0.60 0.61 0.62 0.49 0.38 0.34 0.28 0.24 0.22 0.23 0.18 0.12 0.08 0.06 0.06 0.08 0.11 0.14 0.16 0.19 0.24 0.31 0.36 0.34 0.45 0.53 0.60 0.89 0.78 0.55 0.46 0.54 0.61 0.58 0.55
0.81 0.70 0.53 0.45 0.45 0.51 0.61 0.71 0.73 0.69 0.65 0.51 0.45 0.38 0.34 0.32 0.26 0.20 0.16 0.13 0.10 0.09 0.08 0.08 0.09 0.10 0.11 0.14 0.18 0.25 0.31 0.29 0.44 0.48 0.45 0.70 0.63 0.49 0.41 0.44 0.54 0.62 0.58
0.91 0.87 0.76 0.67 0.64 0.64 0.61 0.74 0.90 0.94 0.86 0.69 0.57 0.51 0.47 0.37 0.29 0.24 0.15 0.13 0.11 0.10 0.10 0.09 0.08 0.07 0.08 0.10 0.14 0.22 0.27 0.29 0.39 0.37 0.41 0.50 0.54 0.48 0.42 0.35 0.36 0.39 0.39
0.76 0.77 0.79 0.83 0.86 0.92 0.92 0.90 1.10 1.16 1.05 0.82 0.68 0.67 0.65 0.50 0.50 0.46 0.29 0.29 0.21 0.17 0.15 0.13 0.10 0.07 0.06 0.06 0.13 0.22 0.19 0.28 0.42 0.37 0.37 0.35 0.40 0.38 0.36 0.30 0.23 0.22 0.22
0.62 0.63 0.64 0.69 0.77 0.89 0.97 1.30 1.50 1.30 1.18 0.90 0.87 0.74 0.76 0.80 0.82 0.59 0.46 0.48 0.41 0.32 0.24 0.19 0.17 0.11 0.06 0.03 0.09 0.13 0.14 0.23 0.34 0.27 0.26 0.28 0.34 0.32 0.26 0.21 0.16 0.15 0.14
0.49 0.48 0.48 0.47 0.49 0.58 0.78 1.12 1.40 1.52 1.48 1.39 1.15 0.90 0.90 0.77 0.65 0.55 0.47 0.50 0.49 0.43 0.36 0.36 0.27 0.16 0.11 0.09 0.11 0.11 0.11 0.16 0.30 0.30 0.24 0.25 0.31 0.32 0.26 0.19 0.13 0.12 0.10
0.47 0.48 0.45 0.44 0.41 0.43 0.52 0.69 0.89 1.03 1.11 1.13 0.98 0.87 0.94 0.81 0.69 0.67 0.62 0.60 0.57 0.53 0.51 0.50 0.41 0.28 0.18 0.11 0.11 0.11 0.12 0.15 0.28 0.38 0.33 0.24 0.29 0.31 0.29 0.21 0.15 0.13 0.13
0.52 0.59 0.56 0.47 0.44 0.43 0.47 0.54 0.62 0.77 0.86 0.88 0.91 0.86 0.88 0.87 0.83 0.77 0.67 0.65 0.58 0.58 0.57 0.56 0.46 0.36 0.28 0.19 0.16 0.18 0.17 0.20 0.27 0.31 0.34 0.33 0.37 0.42 0.41 0.36 0.26 0.17 0.15
0.53 0.60 0.65 0.57 0.52 0.48 0.46 0.49 0.54 0.64 0.72 0.76 0.75 0.74 0.84 0.91 0.89 0.84 0.77 0.77 0.72 0.69 0.73 0.65 0.51 0.47 0.36 0.24 0.16 0.14 0.14 0.17 0.22 0.22 0.29 0.37 0.43 0.41 0.47 0.51 0.45 0.29 0.23
0.53 0.56 0.59 0.60 0.60 0.59 0.57 0.56 0.56 0.63 0.73 0.74 0.72 0.67 0.68 0.76 0.81 0.83 0.81 0.78 0.81 0.87 0.87 0.81 0.63 0.53 0.39 0.27 0.19 0.13 0.09 0.10 0.08 0.09 0.11 0.14 0.25 0.38 0.46 0.51 0.49 0.40 0.33
0.46 0.47 0.52 0.54 0.59 0.65 0.68 0.69 0.71 0.71 0.78 0.75 0.74 0.67 0.63 0.67 0.74 0.86 0.86 0.81 0.81 0.90 0.94 0.94 0.79 0.66 0.48 0.37 0.31 0.20 0.15 0.12 0.07 0.06 0.08 0.07 0.14 0.21 0.34 0.36 0.37 0.40 0.38
0.41 0.41 0.44 0.48 0.51 0.62 0.70 0.73 0.82 0.84 0.85 0.83 0.82 0.73 0.70 0.76 0.81 0.96 1.04 1.03 1.02 0.99 0.93 0.88 0.86 0.75 0.59 0.48 0.42 0.35 0.23 0.16 0.14 0.10 0.09 0.08 0.07 0.12 0.19 0.14 0.15 0.17 0.23
0.32 0.34 0.38 0.43 0.45 0.53 0.68 0.80 0.96 1.07 1.04 1.06 1.00 0.88 0.90 1.03 1.16 1.27 1.25 1.31 1.35 1.19 1.09 0.99 0.95 0.86 0.70 0.60 0.52 0.40 0.28 0.21 0.19 0.17 0.14 0.11 0.08 0.09 0.11 0.09 0.11 0.08 0.08
0.22 0.25 0.31 0.34 0.42 0.50 0.58 0.73 0.95 1.22 1.33 1.42 1.37 1.20 1.14 1.26 1.49 1.68 1.61 1.62 1.61 1.44 1.36 1.41 1.54 1.42 1.09 0.79 0.69 0.54 0.36 0.23 0.22 0.20 0.16 0.15 0.15 0.16 0.14 0.10 0.10 0.11 0.06
0.15 0.17 0.22 0.30 0.39 0.48 0.57 0.75 0.91 1.06 1.07 1.23 1.39 1.36 1.27 1.25 1.39 1.52 1.75 1.78 1.68 1.66 1.75 1.78 2.02 2.07 1.58 1.12 1.01 1.01 0.76 0.54 0.31 0.20 0.17 0.16 0.15 0.21 0.16 0.11 0.08 0.08 0.06
0.10 0.12 0.15 0.22 0.32 0.45 0.61 0.85 1.07 1.26 1.34 1.40 1.32 1.41 1.41 1.33 1.35 1.43 1.58 1.72 1.70 1.73 1.77 1.87 2.16 2.50 2.20 1.66 1.34 1.38 1.10 0.92 0.71 0.33 0.20 0.18 0.16 0.19 0.21 0.18 0.14 0.12 0.10
0.08 0.09 0.12 0.20 0.35 0.56 0.78 1.04 1.30 1.50 1.53 1.43 1.47 1.50 1.37 1.29 1.25 1.31 1.44 1.57 1.66 1.66 1.75 1.81 1.89 2.30 2.54 2.22 1.87 1.47 1.13 0.99 0.98 0.75 0.43 0.29 0.27 0.22 0.22 0.22 0.18 0.17 0.15
0.14 0.16 0.23 0.43 0.68 0.93 1.14 1.41 1.70 1.70 1.59 1.50 1.49 1.46 1.40 1.39 1.37 1.36 1.49 1.54 1.54 1.59 1.67 1.93 2.14 2.37 2.49 2.40 2.24 2.01 1.75 1.42 0.99 0.97 0.93 0.66 0.49 0.36 0.27 0.25 0.24 0.21 0.21
0.44 0.58 0.79 1.05 1.24 1.33 1.46 1.61 1.73 1.71 1.72 1.66 1.48 1.38 1.37 1.41 1.47 1.52 1.57 1.55 1.50 1.53 1.61 1.79 2.02 2.23 2.47 2.59 2.43 2.17 2.00 1.78 1.47 1.28 1.06 0.97 0.85 0.62 0.52 0.44 0.36 0.32 0.31